This is the latest recevied weather packets stored in our database for station/object N4LLZ-13. If no packets are shown the sender has not sent any weather packets the latest 10 day(s).
| Time | Temp. | Humidity | Pressure | Rain* | Wind** | Luminosity | Snow |
|---|---|---|---|---|---|---|---|
| 1777670765 | 12.22° C | 78% | 1013.8 hPa | 0 mm | - | - | - |
| 1777670465 | 12.22° C | 77% | 1013.9 hPa | 1.27 mm | - | - | - |
| 1777670164 | 12.22° C | 77% | 1013.9 hPa | 1.27 mm | - | - | - |
| 1777669863 | 12.22° C | 76% | 1013.9 hPa | 1.27 mm | - | - | - |
| 1777669562 | 12.22° C | 73% | 1014 hPa | 1.27 mm | - | - | - |
| 1777668961 | 12.22° C | 79% | 1014 hPa | 1.27 mm | - | - | - |
| 1777668660 | 12.22° C | 81% | 1014 hPa | 1.27 mm | - | - | - |
| 1777668359 | 12.22° C | 80% | 1014.1 hPa | 4.32 mm | - | - | - |
| 1777667757 | 12.22° C | 79% | 1014.1 hPa | 4.57 mm | - | - | - |
| 1777667457 | 12.22° C | 77% | 1014.1 hPa | 5.59 mm | - | - | - |
| 1777667157 | 12.22° C | 77% | 1014.1 hPa | 4.57 mm | - | - | - |
| 1777666856 | 12.22° C | 79% | 1014.2 hPa | 4.57 mm | - | - | - |
| 1777666556 | 12.22° C | 77% | 1014.3 hPa | 4.57 mm | - | - | - |
| 1777666255 | 12.22° C | 79% | 1014.3 hPa | 4.57 mm | - | - | - |
| 1777665954 | 12.22° C | 78% | 1014.4 hPa | 4.57 mm | - | - | - |
| 1777665653 | 12.22° C | 80% | 1014.4 hPa | 4.57 mm | - | - | - |
| 1777665352 | 12.22° C | 79% | 1014.6 hPa | 4.57 mm | - | - | - |
| 1777664751 | 12.22° C | 78% | 1014.8 hPa | 1.27 mm | - | - | - |
| 1777664150 | 12.22° C | 74% | 1014.7 hPa | 0.25 mm | - | - | - |
| 1777663848 | 12.22° C | 74% | 1014.7 hPa | 0 mm | - | - | - |
| 1777663548 | 12.22° C | 73% | 1014.6 hPa | 0 mm | - | - | - |
| 1777663247 | 12.78° C | 72% | 1014.6 hPa | 0 mm | - | - | - |
| 1777662946 | 12.78° C | 72% | 1014.7 hPa | 0 mm | - | - | - |
| 1777662645 | 12.78° C | 72% | 1014.8 hPa | 0 mm | - | - | - |
| 1777661743 | 13.33° C | 71% | 1015.1 hPa | 0 mm | - | - | - |
* Rain latest hour (hover to see other rain measurements)
** Current wind speed in m/s (hover to see current wind gust speed)